Dati Storici

Data ora Umidita' aria (%) Temperatura aria (°C) Rad globale (W/m²) Gonioanemometro (°) Tacoanemometro (m/s) Pioggia (mm)
04-11-2012 20:10 97.7 % 13.027 3.717 45.151 2.188 0
04-11-2012 20:00 97.6 % 13.026 3.871 37.104 2.337 0
04-11-2012 19:50 97.6 % 13.029 3.858 58.996 1.412 0
04-11-2012 19:40 97.6 % 13.025 3.922 40.327 2.113 0
04-11-2012 19:30 97.5 % 13.034 3.832 20.704 2.51 0
04-11-2012 19:20 97.5 % 13.051 3.871 30.727 1.43 0
04-11-2012 19:10 97.4 % 13.08 3.806 73.621 1.327 0
04-11-2012 19:00 97.4 % 13.102 4.063 21.271 1.444 0
04-11-2012 18:50 97.4 % 13.115 4.024 25.02 1.116 0
04-11-2012 18:40 97.4 % 13.097 4.088 0.8 1.64 0
04-11-2012 18:30 97.4 % 13.094 4.024 25.74 2.832 0
04-11-2012 18:20 97.4 % 13.09 4.012 17.81 3.078 0
04-11-2012 18:10 97.4 % 13.084 4.088 22.951 2.539 0
04-11-2012 18:00 97.4 % 13.093 4.204 30.037 3.378 0
04-11-2012 17:50 97.4 % 13.084 5.23 27.389 1.604 0
04-11-2012 17:40 97.3 % 13.067 6.409 51.639 2.434 0
04-11-2012 17:30 97.2 % 13.058 14.583 15.032 2.934 0
04-11-2012 17:20 97.2 % 13.055 15.54 32.773 2.479 0
04-11-2012 17:10 97.2 % 13.063 17.94 50.994 1.655 0
04-11-2012 17:00 97.3 % 13.055 17.072 11.297 3.183 0

I dati sono presentati in modo automatico a scopo informativo. In seguito a verifica i dati possono subire modifiche o essere invalidati e non riportati negli archivi definitivi.